Location: St. Louis
(38.6270°N, 90.1994°W)
Time: 13:49:07
(UTC-06:00)

Transit 4A - Pass Details

Date: 05 December 2021
Orbit: 864 x 980 km, 66.8° (Epoch: 16 January)

Event Time Altitude Azimuth Distance (km) Brightness Sun altitude
Rises 06:03:47 0° 307° (NW) 3,649 - -11.5°
Reaches altitude 10° 06:09:07 10° 269° (W) 2,717 - -10.5°
Exits shadow 06:09:19 10° 267° (W) 2,707 9.8 -10.5°
Maximum altitude 06:10:08 10° 260° (W) 2,690 9.8 -10.3°
Drops below altitude 10° 06:11:08 10° 251° (WSW) 2,720 9.9 -10.2°
Sets 06:16:33 0° 213° (SSW) 3,668 10.9 -9.2°
